Theta_e
308 308 308 308 309 309 309 309 310 310 311 311 312 313 314 314 315 315 315 315 314 312 312 312 313 315 315 315 314 315 308 311 315 313 316 316 314 316 316 315 315 316 315 315 318
309 309 309 309 309 309 309 309 310 310 311 311 312 313 314 315 316 317 316 316 315 313 312 314 314 316 317 317 317 314 309 314 315 314 313 315 316 316 316 314 312 313 315 313 315
309 309 309 309 309 309 309 309 309 310 311 311 312 313 314 315 318 317 313 312 313 313 312 314 314 315 316 316 317 314 311 313 315 317 316 315 316 316 314 313 314 313 314 314 313
310 310 310 310 310 309 309 309 309 309 310 311 312 312 314 315 318 317 311 311 312 312 312 313 314 315 314 315 317 313 314 315 316 316 316 315 316 315 315 316 316 315 313 313 313
310 310 310 310 310 310 310 309 309 309 309 310 311 312 314 316 317 318 317 311 311 312 313 315 315 315 313 315 316 314 315 315 316 316 317 317 316 315 316 316 316 315 313 313 313
311 311 310 310 310 310 309 310 309 309 309 309 310 311 314 315 317 319 318 316 311 313 314 314 315 315 315 315 314 316 315 316 316 316 316 315 315 316 315 314 314 314 314 313 312
309 310 310 310 310 310 309 309 309 309 309 309 310 311 313 313 316 318 317 317 315 312 313 314 314 314 316 315 315 315 313 312 314 315 315 315 313 312 315 314 313 313 313 312 312
309 308 307 309 309 309 309 309 309 309 309 308 309 311 312 314 316 317 318 317 316 314 314 314 313 314 316 315 314 314 312 314 313 313 314 313 311 313 314 313 312 312 311 311 311
319 314 309 308 308 308 308 309 309 309 309 308 309 311 312 314 315 316 318 317 316 314 314 314 313 314 314 310 311 311 313 313 313 312 312 311 313 313 312 312 312 311 311 311 311
324 323 319 313 309 309 308 308 308 309 309 308 309 313 312 314 316 317 317 316 315 314 313 313 314 310 308 309 313 313 313 313 314 313 312 311 310 310 311 311 312 312 311 311 311
323 324 324 323 321 320 313 310 309 311 311 309 311 311 314 313 316 317 316 315 314 313 311 313 311 311 311 309 312 313 313 315 314 313 312 310 311 311 311 310 310 311 311 311 312
324 323 323 323 322 322 317 309 310 315 315 312 311 313 315 315 315 315 315 315 314 312 311 311 312 311 311 311 311 312 313 312 312 312 311 312 311 310 310 310 311 312 313 313 311
322 324 324 324 322 322 321 314 309 314 314 311 310 312 312 315 316 315 315 314 312 312 311 312 314 313 313 313 313 313 312 313 314 313 311 311 310 310 311 311 313 314 315 314 313
321 322 323 321 317 320 321 315 309 311 307 307 314 312 313 315 315 316 315 315 312 312 311 312 313 313 313 314 313 314 312 314 314 314 314 311 315 312 311 310 309 313 312 313 312
317 321 321 322 320 319 318 315 314 314 309 309 314 314 313 314 312 313 314 314 311 312 312 313 313 313 314 314 312 314 313 313 313 312 314 313 313 312 312 312 312 314 314 314 312
315 317 320 319 318 319 318 318 310 317 311 311 315 313 313 314 311 310 312 312 313 312 312 312 312 312 313 311 312 311 313 312 311 312 314 314 313 313 314 315 313 314 315 316 315
309 312 318 319 317 318 319 316 310 315 313 314 314 313 315 313 310 310 310 310 312 314 314 312 312 311 311 312 312 312 313 314 316 314 317 312 313 316 313 312 313 315 317 316 314
307 308 310 318 317 317 316 312 314 312 315 313 314 313 315 313 312 310 310 312 310 312 312 315 315 311 310 313 313 312 312 314 316 316 315 311 315 316 311 314 314 315 314 313 311
307 307 308 310 316 316 314 314 317 315 314 315 315 316 315 314 312 310 310 313 312 310 314 314 315 311 310 311 313 312 314 314 315 299 310 315 313 312 310 309 310 312 311 309 311
305 307 307 307 312 316 315 314 312 312 313 314 318 316 317 314 313 310 309 310 312 310 311 313 315 310 310 312 311 311 311 314 311 314 314 315 315 318 313 311 310 309 307 309 309
305 306 306 305 309 315 317 317 315 312 313 314 316 317 315 315 313 311 312 311 311 310 311 313 315 312 310 311 312 312 312 313 314 312 315 314 316 310 314 311 310 309 312 310 308
304 307 306 309 313 312 315 316 314 313 313 315 315 314 315 314 314 312 312 312 312 310 312 312 316 310 311 309 308 311 313 312 314 313 311 312 319 310 310 311 311 312 314 312 310
303 304 308 311 310 310 311 315 315 315 315 315 316 314 313 315 317 313 311 312 312 311 311 313 314 312 313 312 309 310 311 314 312 308 313 316 320 306 306 309 311 312 314 310 308
301 303 304 307 310 310 310 311 315 315 315 315 316 315 315 316 315 316 315 313 314 312 313 314 315 315 318 317 312 311 310 311 315 317 317 316 318 312 311 310 309 311 311 311 308
298 303 304 307 306 307 308 312 312 313 315 315 316 316 317 318 318 318 315 313 312 312 312 314 317 314 316 315 313 312 311 312 314 315 318 318 316 317 314 309 311 313 312 309 308
298 301 303 304 306 307 307 308 309 309 312 315 316 316 316 317 316 317 317 316 317 311 313 312 317 316 317 315 313 314 311 312 313 314 315 316 317 312 314 315 310 313 313 310 311
298 299 301 303 303 303 306 309 307 308 309 309 309 314 315 315 315 316 316 316 316 316 314 316 316 317 320 316 313 317 316 313 312 313 313 315 315 311 312 311 311 312 312 312 313
Wind_Speed
6 5 5 3 2 2 1 0 0 1 2 3 3 3 3 3 3 1 1 1 1 2 3 4 5 5 6 6 5 3 4 2 0 5 4 9 5 5 7 11 5 5 9 11 23
4 3 3 3 2 1 1 1 1 2 3 4 4 4 4 3 2 0 1 1 2 3 4 4 4 5 4 3 3 4 4 5 2 3 5 10 8 10 6 8 5 9 13 21 22
5 4 3 2 2 2 2 2 2 3 3 4 4 5 4 3 2 2 2 1 3 4 5 5 4 4 4 3 2 3 4 3 1 1 7 8 5 7 11 3 10 17 20 22 23
7 6 5 4 4 4 4 3 4 4 5 5 5 4 4 2 3 2 3 3 4 6 7 7 5 3 3 2 2 3 1 2 3 2 5 7 8 6 10 6 10 12 18 21 23
10 9 8 7 6 6 6 6 5 5 6 6 5 4 3 2 3 2 1 3 6 8 10 9 5 3 4 3 2 2 1 2 2 3 5 4 5 5 7 9 9 17 20 19 20
13 12 12 11 10 9 8 8 7 7 7 6 6 5 4 4 4 4 4 4 5 7 8 7 4 4 4 2 3 3 1 3 6 5 5 5 4 4 7 15 16 19 20 20 21
13 13 14 14 13 12 11 9 9 9 8 7 7 7 8 9 6 5 4 5 6 7 7 6 4 3 5 3 1 1 3 4 9 8 5 6 5 9 10 20 21 22 21 21 21
11 11 13 14 15 15 14 12 11 10 9 8 7 8 7 8 9 13 10 9 8 9 7 5 4 5 2 5 3 2 3 2 2 9 3 7 7 5 15 24 26 24 23 23 24
7 7 10 12 14 16 16 15 14 12 10 9 8 6 7 10 14 12 11 9 10 9 8 5 6 3 4 5 4 4 3 5 7 11 4 5 6 3 9 25 26 26 26 26 25
9 6 7 6 8 12 16 17 16 14 12 10 11 5 13 8 10 12 12 10 8 10 8 5 3 3 3 4 5 6 5 5 5 4 2 4 11 5 10 22 28 27 28 29 30
24 16 12 11 11 13 14 16 11 8 13 11 6 6 3 12 11 11 15 14 10 7 5 4 4 7 13 9 4 4 4 4 4 4 6 8 9 11 18 22 26 28 31 34 34
20 22 21 25 25 18 15 11 9 6 10 17 24 20 8 13 10 15 20 12 8 5 6 4 8 11 5 5 6 5 5 7 6 4 7 6 11 11 7 16 31 37 38 40 37
23 19 18 22 20 18 17 15 14 10 6 11 24 29 28 22 14 22 27 12 5 7 9 8 6 6 8 5 6 6 7 5 8 2 3 3 6 9 11 25 30 35 42 41 45
19 21 15 19 16 20 19 9 15 6 2 6 8 13 27 17 10 20 31 14 5 12 8 6 6 5 5 6 8 7 7 6 5 2 5 3 7 5 6 11 10 34 38 46 44
17 18 19 24 21 16 9 8 11 7 3 4 5 4 14 17 14 17 34 14 9 9 7 9 8 9 7 7 10 7 4 5 3 3 2 3 5 6 4 8 12 26 34 38 43
17 19 17 25 30 21 16 10 14 1 11 4 2 4 7 5 2 7 15 6 6 5 3 5 2 8 9 3 8 6 5 6 4 3 4 10 8 5 6 14 9 24 29 33 38
15 18 20 24 32 26 23 20 5 6 6 4 3 4 3 4 3 4 7 10 9 7 12 3 4 3 5 5 3 5 7 2 3 1 8 3 6 14 7 11 14 17 29 22 28
16 16 22 25 30 24 29 4 6 10 12 3 4 3 6 5 3 5 6 9 10 2 3 11 7 11 7 11 7 8 9 6 7 5 5 0 7 6 13 22 20 26 28 20 23
18 19 23 27 25 28 20 5 8 9 7 9 4 3 5 4 5 5 7 8 10 14 11 7 7 1 0 4 13 7 9 5 2 2 1 6 8 7 10 9 17 28 19 17 23
16 18 29 24 25 32 11 11 6 6 8 6 17 10 14 8 8 8 10 6 6 13 5 5 3 1 1 5 3 6 8 2 1 2 6 5 6 9 4 12 13 14 12 19 23
14 7 15 18 21 20 10 11 10 13 8 7 12 6 8 8 9 6 7 2 10 8 24 5 5 1 3 7 11 4 5 4 5 6 5 3 7 7 13 11 12 13 27 24 25
12 5 8 20 15 9 15 6 10 12 23 5 2 9 8 9 10 9 13 9 17 11 13 9 3 5 9 3 3 1 4 6 5 6 5 3 17 6 6 5 11 15 17 20 26
11 19 10 26 8 14 13 16 16 7 13 15 13 11 10 10 4 7 6 9 10 13 11 10 5 1 5 3 2 5 7 15 2 3 10 6 15 2 5 5 9 15 16 18 22
8 3 17 22 22 13 18 21 12 22 13 9 10 16 8 12 11 7 6 7 19 18 20 19 6 11 18 4 8 7 9 12 18 10 10 20 20 6 6 6 9 14 13 16 20
14 7 8 5 15 17 16 6 22 21 19 27 8 16 17 10 14 17 16 6 6 12 11 14 14 9 23 8 9 10 13 21 23 33 12 34 19 21 13 11 17 18 15 17 21
11 10 9 12 5 15 17 22 26 15 4 14 16 19 24 21 19 18 17 10 19 4 6 1 14 16 25 18 9 6 11 25 30 29 27 30 31 6 12 20 15 28 27 25 28
26 31 11 13 14 7 7 10 22 16 14 23 18 18 20 23 32 34 22 14 15 16 14 18 12 13 22 15 4 6 35 11 15 22 23 23 37 7 15 14 22 29 31 34 35
Wind_Direction
158 158 158 157 158 154 148 125 63 15 7 9 9 8 2 356 348 340 129 164 157 153 146 133 106 97 82 74 79 98 64 94 343 161 216 181 132 143 151 138 134 149 157 165 177
176 184 180 187 180 211 227 280 317 341 350 350 350 347 352 351 348 102 231 227 198 180 166 161 125 101 84 70 62 81 97 193 198 200 209 179 163 145 151 137 109 133 148 158 177
207 208 233 247 260 258 275 305 316 322 331 334 340 339 343 350 128 40 50 121 169 177 169 170 127 107 88 85 56 117 156 189 209 343 176 174 177 178 149 226 195 186 170 173 181
240 240 238 253 277 292 296 301 310 315 319 322 331 333 333 335 179 97 66 87 139 151 150 149 146 106 92 98 93 95 142 179 164 158 151 169 161 160 183 211 211 196 185 183 189
246 254 259 259 261 277 293 302 308 311 312 317 323 325 318 261 214 208 130 102 121 141 148 144 133 105 112 134 101 108 224 243 198 172 180 170 194 191 215 197 189 184 186 189 193
248 253 259 265 269 271 280 293 300 306 307 313 314 311 294 261 206 206 198 180 160 158 157 157 138 110 108 127 147 161 207 247 245 217 200 194 214 201 216 186 179 188 193 197 202
244 255 259 264 267 272 275 282 290 295 299 305 306 301 278 259 214 195 182 189 198 199 186 178 152 165 142 113 121 10 318 317 228 208 210 186 282 236 221 195 195 200 205 208 209
244 246 260 265 269 270 272 276 280 283 289 292 294 294 263 247 228 230 233 229 210 208 204 203 191 154 143 126 51 47 48 339 298 160 213 153 263 249 217 198 204 207 209 214 218
262 256 250 258 270 278 277 274 276 279 281 281 282 268 258 241 230 223 215 215 208 204 199 181 167 140 132 95 18 358 233 216 312 196 134 174 253 255 216 199 209 213 215 220 222
262 267 278 252 269 281 286 283 280 281 274 270 250 266 237 226 213 208 204 193 185 182 161 163 133 79 51 104 222 202 222 243 227 206 184 204 261 248 205 203 217 220 223 226 229
253 256 257 280 299 290 289 291 293 286 239 219 213 209 252 204 191 191 183 173 163 168 151 168 116 203 205 198 175 162 195 235 257 222 168 226 252 261 220 220 232 232 232 232 234
245 252 259 270 276 278 274 257 236 270 298 258 243 231 230 200 190 192 181 171 171 173 130 55 228 229 187 205 215 234 248 260 273 242 181 248 245 257 208 226 231 235 237 237 233
241 246 250 259 259 258 258 259 241 242 266 262 244 236 222 216 213 196 184 185 158 146 189 175 214 172 170 181 191 234 212 228 234 338 261 325 272 245 254 241 247 248 250 247 238
244 243 241 240 237 252 261 251 222 222 307 263 216 229 214 200 231 212 194 175 184 189 167 226 228 156 170 198 172 238 207 199 210 130 243 155 281 263 241 246 229 248 244 244 238
251 247 240 246 239 213 194 202 174 151 274 227 186 196 184 178 139 190 191 202 173 180 144 225 183 186 189 192 168 229 168 196 203 192 351 215 285 258 235 257 255 252 247 247 242
244 243 238 240 225 214 217 196 148 288 230 301 129 162 141 186 107 123 180 178 168 149 275 224 209 170 196 143 181 134 83 49 52 81 259 227 204 198 209 233 250 254 256 251 244
249 242 233 239 224 222 230 157 115 190 318 235 192 173 209 150 129 157 166 181 171 159 219 141 217 205 161 108 74 120 104 292 314 327 241 283 233 252 254 248 227 251 265 261 240
252 248 237 233 232 223 177 112 207 189 215 82 130 80 181 157 189 168 130 196 239 184 122 200 251 174 185 199 165 196 164 169 214 216 256 1 237 248 227 252 266 255 263 269 233
256 252 250 233 223 211 183 197 211 185 177 178 101 137 228 221 161 149 204 220 203 189 194 177 251 156 1 144 161 196 214 173 19 72 357 224 285 290 252 276 271 260 262 243 229
262 262 254 243 221 205 210 215 245 223 155 163 197 187 194 199 174 184 172 204 214 188 207 213 282 25 227 112 37 163 161 91 37 227 255 267 259 232 234 229 246 265 230 230 226
259 259 260 242 216 221 229 223 202 212 212 179 204 199 217 185 192 205 210 235 198 196 194 177 189 277 128 214 173 142 191 188 140 160 206 286 254 219 210 210 226 250 260 241 225
238 236 217 187 193 219 237 220 219 191 223 209 244 192 204 198 189 202 212 214 195 153 188 199 190 189 202 222 244 178 220 163 149 211 230 186 257 184 193 187 215 259 268 253 239
240 242 222 201 213 220 237 241 228 198 198 212 212 212 209 176 224 216 199 227 186 170 172 165 217 23 328 345 352 211 208 212 75 63 217 190 259 277 229 234 247 256 263 252 237
252 249 224 229 240 225 222 237 237 208 223 239 222 226 211 227 202 233 224 215 219 204 210 167 171 208 232 191 152 198 198 203 209 232 226 238 258 199 226 226 245 244 248 242 236
220 237 236 195 228 233 244 256 233 239 229 202 225 234 216 229 229 237 222 211 219 216 200 173 223 215 241 227 190 199 197 206 209 226 208 252 237 249 239 221 240 250 241 229 228
217 224 241 249 207 216 225 235 245 254 268 228 226 217 214 228 222 234 223 212 225 181 191 237 236 230 254 243 200 230 232 217 212 225 230 251 259 153 234 247 223 238 239 230 232
226 228 253 243 237 229 226 230 238 237 229 231 262 261 229 229 235 245 253 245 233 216 222 210 219 227 246 236 166 261 236 200 220 225 217 233 246 211 249 236 236 239 237 235 240